This is the latest recevied weather packets stored in our database for station/object KC2TER. If no packets are shown the sender has not sent any weather packets the latest 10 day(s).
| Time | Temp. | Humidity | Pressure | Rain* | Wind** | Luminosity | Snow |
|---|---|---|---|---|---|---|---|
| 1777744026 | 13.33° C | 79% | 1011.4 hPa | 0 mm | - | 235 W/m² | - |
| 1777743723 | 13.33° C | 79% | 1011.4 hPa | 0 mm | - | 226 W/m² | - |
| 1777743419 | 13.33° C | 79% | 1011.6 hPa | 0 mm | - | 238 W/m² | - |
| 1777743117 | 13.33° C | 80% | 1011.3 hPa | 0 mm | - | 200 W/m² | - |
| 1777742815 | 12.78° C | 80% | 1011.5 hPa | 0 mm | - | 179 W/m² | - |
| 1777742511 | 13.33° C | 80% | 1011.6 hPa | 0 mm | - | 362 W/m² | - |
| 1777742206 | 12.78° C | 80% | 1011.6 hPa | 0 mm | - | 226 W/m² | - |
| 1777741904 | 13.33° C | 78% | 1011.6 hPa | 0 mm | - | 74 W/m² | - |
| 1777741601 | 13.89° C | 76% | 1011.8 hPa | 0 mm | - | 58 W/m² | - |
| 1777741298 | 13.89° C | 74% | 1011.7 hPa | 0 mm | - | 117 W/m² | - |
| 1777740994 | 13.89° C | 69% | 1011.7 hPa | 0 mm | - | 173 W/m² | - |
| 1777740692 | 14.44° C | 68% | 1011.6 hPa | 0 mm | - | 219 W/m² | - |
| 1777740387 | 14.44° C | 67% | 1011.9 hPa | 0 mm | - | 234 W/m² | - |
| 1777740084 | 13.89° C | 68% | 1012 hPa | 0 mm | - | 399 W/m² | - |
| 1777739780 | 13.89° C | 68% | 1012 hPa | 0 mm | - | 204 W/m² | - |
| 1777739477 | 13.89° C | 69% | 1011.8 hPa | 0 mm | - | 210 W/m² | - |
| 1777739174 | 13.89° C | 68% | 1012.2 hPa | 0 mm | - | 218 W/m² | - |
| 1777738871 | 13.89° C | 69% | 1012 hPa | 0 mm | - | 243 W/m² | - |
| 1777738568 | 13.89° C | 69% | 1012.2 hPa | 0 mm | - | 314 W/m² | - |
| 1777738265 | 13.89° C | 69% | 1012.1 hPa | 0 mm | - | 358 W/m² | - |
| 1777737963 | 13.89° C | 69% | 1011.8 hPa | 0 mm | - | 306 W/m² | - |
| 1777737662 | 13.89° C | 68% | 1012.1 hPa | 0 mm | - | 266 W/m² | - |
| 1777737360 | 13.89° C | 69% | 1012 hPa | 0 mm | - | 224 W/m² | - |
| 1777737056 | 13.89° C | 69% | 1011.9 hPa | 0 mm | - | 188 W/m² | - |
| 1777736752 | 13.89° C | 71% | 1012 hPa | 0 mm | - | 236 W/m² | - |
* Rain latest hour (hover to see other rain measurements)
** Current wind speed in m/s (hover to see current wind gust speed)